Regional Weather Roundup
Issued by NWS

Home | Current Version | Previous Version | Graphics & Text | Print | Product List | Glossary Off
Versions: 1 2 3 4 5 6 7 8 9 10 11 12 13 14 15 16 17 18 19 20 21 22 23 24 25 26 27 28 29 30 31 32 33 34 35 36 37 38 39 40 41 42 43 44 45 46 47 48 49 50

000
ASUS43 KTOP 270659
RWRKS

WEATHER ROUNDUP FOR KANSAS
NATIONAL WEATHER SERVICE GOODLAND KS
200 AM CDT SAT AUG 27 2016

NOTE:  "FAIR" INDICATES FEW OR NO CLOUDS BELOW 12,000 FEET WITH NO
SIGNIFICANT WEATHER AND/OR OBSTRUCTIONS TO VISIBILITY.

KSZ001>006-013>018-027>032-041>047-270800-
NORTHWEST KANSAS

CITY           SKY/WX    TMP DP  RH WIND       PRES   REMARKS
GOODLAND       CLEAR     51  50  96 CALM      30.07S FOG
HAYS           CLOUDY    61  52  72 E3        30.04S
HILL CITY      CLOUDY    59  58  96 CALM      30.06R
RUSSELL        LGT RAIN  61  60  97 E12       30.03F
$$

KSZ061>065-074>080-084>089-270800-
SOUTHWEST KANSAS

CITY           SKY/WX    TMP DP  RH WIND       PRES   REMARKS
DODGE CITY     MOCLDY    68  64  87 S7        30.03S
ELKHART          N/A     63  53  70 SW9         N/A
GARDEN CITY    PTCLDY    67  63  87 SE6       30.03R
GREAT BEND     CLOUDY    64  55  72 NE14      30.04S
LIBERAL        PTCLDY    68  61  77 SW6       30.04F
$$

KSZ066>073-081>083-090>101-270800-
SOUTHEAST KANSAS

CITY           SKY/WX    TMP DP  RH WIND       PRES   REMARKS
CHANUTE        PTCLDY    71  69  93 SE3       30.00F
COFFEYVILLE    MOCLDY    72  70  93 SE3       30.01
HUTCHINSON     CLEAR     71  68  90 S5        29.99F
MEDICINE LODGE   N/A     70  66  87 S7        29.99S
NEWTON         PTCLDY    70  68  93 S6        30.01F
PARSONS        CLOUDY    72  70  93 SE3       30.02F
WICHITA INTL   PTCLDY    71  68  90 SE7       30.00F
WICHITA JABRA  CLEAR     71  69  93 SE7       30.01F
WINFIELD       CLEAR     70  67  90 SE6       30.02F
$$

KSZ007>012-019>026-033>040-048>060-102>105-270800-
NORTHEAST KANSAS

CITY           SKY/WX    TMP DP  RH WIND       PRES   REMARKS
CONCORDIA      TSTM      65  64  97 W13G26    30.03R VSB 3/4
EMPORIA        CLEAR     70  68  93 SE5       30.01F
LAWRENCE       MOCLDY    69  69 100 CALM      30.02F
MANHATTAN      CLOUDY    70  68  93 NE3       30.01F
OLATHE IND     MOCLDY    70  69  97 E6        30.03F
OLATHE EXE     CLOUDY   N/A N/A N/A E3        30.03F
SALINA         PTCLDY    72  66  81 CALM      30.01S
TOPEKA BILLARD CLEAR     69  67  93 E3        30.01F
TOPEKA FORBES  MOCLDY    71  69  93 E6        30.01F
$$




USA.gov is the U.S. government's official web portal to all federal, state and local government web resources and services.